[[{"header":{"parameterUnit":"m.s-1","parameterCategory":2,"la1":30.2991,"la2":30.254,"lo1":-89.0895,"lo2":-89.0444,"dy":0.0017,"dx":0.0017,"nx":28,"ny":28,"refTime":"2024-08-08T03:00:00:Z","depth":"0","parameterNumber":2,"parameterNumberName":"U-component_of_CURRENTS"},"data":[0,0,0,0,0,0,0,0,0,0,0,0,0,0,0,0,0,0,0,0,0,0,0,0,0,0,0,0,0,0,0,0,0,0,0,0,0,0,0,0,0,0,0,0,0,0,0,0,0,0,0,0,0,0,0,0,0,0,0.1711,0.1711,0,0.1722,0.1722,0.1722,0.1706,0.1705,0.1704,0.1704,0.1651,0.165,0.1649,0,0,0,0,0,0,0,0,0,0,0,0,0,0.168,0.1681,0.1711,0.1711,0.1711,0.1722,0.1722,0.1722,0.1706,0.1705,0.1704,0.1703,0.1651,0.165,0.1649,0,0,0,0,0,0,0,0,0,0,0,0,0,0.1695,0.1681,0.1711,0.1702,0.1701,0.1721,0.1722,0.1722,0.1706,0.1705,0.1704,0.1703,0.1651,0.165,0.1649,0.1667,0,0,0.1646,0.1646,0,0,0,0,0,0,0,0,0.1694,0.1696,0.1703,0.1703,0.1702,0.1709,0.1691,0.17,0.1707,0.1707,0.1704,0.1702,0.1663,0.1661,0.1671,0.1665,0.1662,0.1646,0.1645,0.1645,0.1645,0,0,0,0,0,0,0,0.1693,0.1696,0.1718,0.1703,0.1702,0.1698,0.17,0.1694,0.1693,0.1707,0.1705,0.1703,0.1663,0.1672,0.1669,0.1662,0.1646,0.1645,0.1645,0.1644,0.1652,0.1653,0,0,0,0,0,0,0.1688,0.1695,0.1717,0.1718,0.1692,0.17,0.1701,0.171,0.1694,0.169,0.1704,0.1702,0.1674,0.167,0.1667,0.1686,0.1645,0.1644,0.1644,0.1651,0.1652,0.1653,0,0,0,0,0,0,0.1687,0.169,0.1717,0.1704,0.1706,0.1701,0.1712,0.1711,0.1713,0.1692,0.1687,0.1706,0.1673,0.1668,0.1653,0.1683,0.1644,0.1643,0.165,0.1651,0.1652,0.1724,0,0,0,0,0,0,0.1687,0.1691,0.17,0.1704,0.1707,0.1723,0.1712,0.1712,0.1713,0.171,0.1692,0.1686,0.1672,0.1654,0.1652,0.1681,0.1642,0.1649,0.1651,0.1652,0.1721,0.1727,0.1733,0,0,0,0,0,0.1686,0.1691,0.1701,0.1704,0.1719,0.1723,0.1724,0.1718,0.1714,0.1716,0.1701,0.1687,0.1662,0.1654,0.1651,0.1681,0.1648,0.165,0.1652,0.1718,0.1726,0.1733,0,0,0,0,0,0,0.1672,0.169,0.1701,0.171,0.1717,0.1718,0.1713,0.172,0.1715,0.1705,0.1691,0.1684,0.1684,0.1669,0.166,0.1686,0.1656,0.1657,0.1707,0.1715,0.1721,0.1709,0.1641,0,0,0,0,0,0.1679,0.1693,0.1705,0.1712,0.1711,0.1718,0.172,0.1719,0.1713,0.171,0.1705,0.1695,0.1694,0.169,0.1681,0.1693,0.1693,0.1711,0.1717,0.1723,0.1711,0.1737,0.1745,0.1659,0.1659,0.1659,0,0,0.167,0.1685,0.1689,0.1711,0.171,0.1705,0.1715,0.1711,0.172,0.1703,0.1708,0.1712,0.1699,0.1713,0.1713,0.1702,0.1755,0.1725,0.173,0.1715,0.174,0.1749,0.1756,0.166,0.166,0.166,0,0,0.1645,0.1674,0.1669,0.1676,0.1682,0.1694,0.1693,0.1704,0.172,0.1726,0.1727,0.1743,0.1734,0.1749,0.1749,0.1783,0.1784,0.179,0.1818,0.1846,0.1853,0.1859,0.1906,0.1916,0.1798,0.1798,0.1799,0,0.1632,0.1641,0.1666,0.1657,0.1663,0.1685,0.1678,0.1698,0.171,0.1738,0.1723,0.1754,0.1749,0.1785,0.1803,0.1798,0.1818,0.1795,0.1855,0.1861,0.1866,0.1912,0.1922,0.1802,0.1802,0.1801,0.1801,0,0.1601,0.1608,0.1599,0.1609,0.162,0.1618,0.1647,0.1674,0.17,0.173,0.1774,0.1783,0.1801,0.1823,0.1819,0.1874,0.188,0.1859,0.1839,0.188,0.1925,0.1935,0.1807,0.1806,0.1805,0.1804,0,0,0.156,0.158,0.1574,0.1584,0.1602,0.161,0.1635,0.1684,0.1713,0.1748,0.1789,0.1824,0.1851,0.1853,0.1877,0.1912,0.1988,0.1909,0.1908,0.196,0.2071,0.2091,0.2103,0.1985,0.1986,0.1987,0.2101,0,0.1527,0.1523,0.1544,0.154,0.154,0.1585,0.1615,0.1664,0.1709,0.1755,0.1807,0.1839,0.1858,0.1877,0.1919,0.196,0.2009,0.196,0.2017,0.2018,0.2035,0.2112,0.2117,0.222,0.211,0.2111,0.2112,0,0.1479,0.1496,0.1496,0.154,0.1544,0.155,0.1623,0.1653,0.1729,0.1765,0.1816,0.1847,0.1918,0.1908,0.2016,0.1987,0.2032,0.2066,0.2071,0.2062,0.2054,0.2153,0.224,0.2166,0.2126,0.2125,0.2124,0,0.1445,0.1458,0.1476,0.1482,0.153,0.1554,0.1587,0.1659,0.1705,0.1768,0.1794,0.1875,0.1908,0.1976,0.2055,0.204,0.2161,0.2144,0.2212,0.2215,0.2212,0.2212,0.2232,0.2212,0.2212,0.2211,0.2211,0,0.1408,0.1405,0.1463,0.1465,0.1494,0.1537,0.1578,0.1622,0.1693,0.174,0.1796,0.1842,0.1923,0.2002,0.2068,0.2181,0.2177,0.2233,0.2247,0.2241,0.2242,0.2168,0.2103,0.2216,0.2215,0.2214,0.2213,0,0.1334,0.1379,0.1388,0.1451,0.1471,0.1485,0.1555,0.159,0.166,0.1712,0.1732,0.1834,0.1941,0.2033,0.2147,0.22,0.2251,0.2331,0.233,0.2342,0.2329,0.2267,0.223,0.2168,0.2435,0.2437,0.2438,0,0.128,0.1289,0.1357,0.1376,0.1396,0.1435,0.1469,0.1555,0.1593,0.1713,0.1734,0.1853,0.1941,0.2133,0.2249,0.2388,0.2294,0.2456,0.242,0.2344,0.2287,0.2181,0.2122,0.2466,0.2467,0.2468,0.2469,0,0.1175,0.1216,0.1242,0.129,0.1324,0.1368,0.1419,0.1453,0.156,0.1623,0.1724,0.1811,0.2014,0.2164,0.234,0.2431,0.235,0.248,0.2399,0.2313,0.2201,0.2143,0.238,0.2477,0.2476,0.2476,0.2475,0.2475,0.1079,0.1088,0.1146,0.1183,0.123,0.1281,0.1299,0.1381,0.1452,0.1549,0.1671,0.179,0.2037,0.2301,0.238,0.2497,0.2409,0.2482,0.2421,0.2327,0.2232,0.2496,0.2599,0.2599,0.2599,0.2599,0.2599,0,0.0936,0.0991,0.1033,0.1087,0.1107,0.1176,0.125,0.1274,0.1337,0.1476,0.158,0.1823,0.2034,0.2234,0.2459,0.2441,0.2366,0.2382,0.2226,0.2176,0.2435,0.24,0.2466,0.2466,0.2466,0.2466,0.2466,0.2466,0.0857,0.0868,0.092,0.0938,0.0991,0.1004,0.1039,0.1108,0.1201,0.1343,0.148,0.1629,0.194,0.2217,0.2331,0.2327,0.2135,0.2102,0.2005,0.2183,0.2187,0.219,0.2142,0.2153,0.2153,0.1731,0.1727,0.1725]},{"header":{"parameterUnit":"m.s-1","parameterCategory":2,"la1":30.2991,"la2":30.254,"lo1":-89.0895,"lo2":-89.0444,"dy":0.0017,"dx":0.0017,"nx":28,"ny":28,"refTime":"2024-08-08T03:00:00:Z","depth":"0","parameterNumber":3,"parameterNumberName":"V-component_of_CURRENTS"},"data":[0,0,0,0,0,0,0,0,0,0,0,0,0,0,0,0,0,0,0,0,0,0,0,0,0,0,0,0,0,0,0,0,0,0,0,0,0,0,0,0,0,0,0,0,0,0,0,0,0,0,0,0,0,0,0,0,0,0,-0.0857,-0.0857,0,-0.0889,-0.089,-0.0891,-0.0913,-0.0912,-0.0912,-0.0912,-0.0916,-0.0916,-0.0917,0,0,0,0,0,0,0,0,0,0,0,0,0,-0.0875,-0.0875,-0.0857,-0.0857,-0.0857,-0.0889,-0.089,-0.0891,-0.0913,-0.0912,-0.0912,-0.0912,-0.0916,-0.0916,-0.0917,0,0,0,0,0,0,0,0,0,0,0,0,0,-0.0888,-0.0875,-0.0857,-0.0868,-0.0869,-0.0889,-0.089,-0.0891,-0.0913,-0.0912,-0.0912,-0.0911,-0.0916,-0.0916,-0.0917,-0.093,0,0,-0.0919,-0.0919,0,0,0,0,0,0,0,0,-0.0887,-0.0888,-0.0866,-0.0867,-0.0868,-0.0892,-0.0898,-0.0901,-0.0913,-0.0902,-0.0912,-0.0911,-0.0902,-0.0904,-0.0919,-0.093,-0.093,-0.0919,-0.0919,-0.0919,-0.092,0,0,0,0,0,0,0,-0.0886,-0.0887,-0.0875,-0.0866,-0.0867,-0.0891,-0.0893,-0.0899,-0.0908,-0.0902,-0.0903,-0.0898,-0.0903,-0.0918,-0.0919,-0.0931,-0.0919,-0.0919,-0.092,-0.092,-0.0972,-0.0973,0,0,0,0,0,0,-0.0869,-0.0886,-0.0874,-0.0875,-0.0871,-0.0891,-0.0893,-0.0889,-0.0908,-0.0909,-0.0899,-0.0899,-0.0917,-0.0918,-0.0919,-0.0927,-0.0919,-0.092,-0.092,-0.0971,-0.0972,-0.0973,0,0,0,0,0,0,-0.087,-0.0868,-0.0872,-0.0877,-0.0879,-0.089,-0.0886,-0.089,-0.09,-0.0905,-0.0906,-0.0904,-0.0917,-0.0918,-0.0912,-0.0927,-0.092,-0.0921,-0.097,-0.0971,-0.0973,-0.0948,0,0,0,0,0,0,-0.087,-0.0868,-0.0868,-0.0876,-0.0878,-0.0876,-0.0886,-0.089,-0.0895,-0.0896,-0.091,-0.091,-0.0917,-0.0911,-0.0912,-0.0928,-0.0921,-0.0968,-0.097,-0.0972,-0.0948,-0.0949,-0.095,0,0,0,0,0,-0.0871,-0.0866,-0.0868,-0.0867,-0.0875,-0.0876,-0.088,-0.089,-0.0896,-0.0899,-0.0902,-0.0909,-0.0925,-0.0911,-0.0913,-0.0929,-0.0967,-0.097,-0.0972,-0.0948,-0.0949,-0.095,0,0,0,0,0,0,-0.0877,-0.0868,-0.087,-0.0865,-0.0866,-0.0877,-0.088,-0.0888,-0.0897,-0.0889,-0.0905,-0.0905,-0.0911,-0.0925,-0.0909,-0.0955,-0.0955,-0.0958,-0.0936,-0.0938,-0.0939,-0.0905,-0.0922,0,0,0,0,0,-0.0876,-0.0873,-0.0867,-0.0866,-0.0861,-0.0872,-0.0876,-0.0874,-0.0878,-0.0882,-0.0897,-0.0913,-0.0926,-0.0931,-0.0943,-0.0957,-0.096,-0.0977,-0.0978,-0.0978,-0.0955,-0.0979,-0.0979,-0.0981,-0.0981,-0.098,0,0,-0.0875,-0.0875,-0.0871,-0.0868,-0.0871,-0.085,-0.0875,-0.0865,-0.0858,-0.0879,-0.0884,-0.0907,-0.0929,-0.0944,-0.0951,-0.0954,-0.0983,-0.0981,-0.0981,-0.0957,-0.0981,-0.0981,-0.0981,-0.0982,-0.0982,-0.0982,0,0,-0.0863,-0.0871,-0.0854,-0.0847,-0.0836,-0.0838,-0.0831,-0.0837,-0.0851,-0.0848,-0.0872,-0.0894,-0.0917,-0.0941,-0.0954,-0.0967,-0.0982,-0.0993,-0.0971,-0.0995,-0.0994,-0.0993,-0.1001,-0.1001,-0.0998,-0.0998,-0.0998,0,-0.0861,-0.084,-0.0852,-0.0827,-0.0814,-0.0826,-0.0794,-0.0809,-0.0817,-0.0835,-0.0838,-0.0889,-0.0911,-0.0934,-0.0946,-0.0966,-0.0977,-0.096,-0.0993,-0.0992,-0.0992,-0.1,-0.1,-0.0997,-0.0998,-0.0998,-0.0998,0,-0.0823,-0.0806,-0.0795,-0.0766,-0.0758,-0.0736,-0.0736,-0.0749,-0.0766,-0.0788,-0.0817,-0.0848,-0.088,-0.0911,-0.0926,-0.0955,-0.0962,-0.0985,-0.0981,-0.099,-0.0998,-0.0999,-0.0996,-0.0997,-0.0997,-0.0997,0,0,-0.0803,-0.0774,-0.0767,-0.0746,-0.072,-0.0707,-0.0701,-0.0709,-0.0715,-0.0744,-0.0756,-0.0805,-0.0839,-0.0855,-0.0898,-0.0923,-0.0942,-0.0952,-0.0954,-0.0942,-0.0983,-0.0955,-0.0954,-0.0974,-0.0974,-0.0974,-0.099,0,-0.0765,-0.0716,-0.0711,-0.0659,-0.0625,-0.0637,-0.0638,-0.065,-0.0674,-0.0696,-0.0746,-0.0766,-0.0815,-0.0829,-0.0865,-0.0915,-0.0942,-0.0934,-0.099,-0.0991,-0.0952,-0.0953,-0.0914,-0.0923,-0.0991,-0.0991,-0.0991,0,-0.0713,-0.0688,-0.0634,-0.0609,-0.0597,-0.0576,-0.0578,-0.058,-0.0621,-0.0642,-0.0673,-0.0708,-0.0747,-0.0783,-0.0859,-0.0853,-0.0911,-0.0951,-0.0954,-0.0929,-0.0964,-0.0927,-0.0921,-0.1005,-0.0992,-0.0992,-0.0992,0,-0.0674,-0.0632,-0.0596,-0.0579,-0.0552,-0.0548,-0.0546,-0.0571,-0.0574,-0.0603,-0.0594,-0.0656,-0.0666,-0.0743,-0.0823,-0.0846,-0.0892,-0.0941,-0.0969,-0.0968,-0.0943,-0.0939,-0.1004,-0.0992,-0.0992,-0.0992,-0.0992,0,-0.0626,-0.0582,-0.0581,-0.0546,-0.052,-0.0517,-0.0498,-0.0515,-0.0522,-0.051,-0.0565,-0.0547,-0.0656,-0.0697,-0.079,-0.0861,-0.0871,-0.0946,-0.0967,-0.0935,-0.093,-0.1008,-0.1059,-0.0993,-0.0993,-0.0993,-0.0993,0,-0.0557,-0.0559,-0.0509,-0.0494,-0.0492,-0.0471,-0.0452,-0.0441,-0.0455,-0.0427,-0.0424,-0.0463,-0.0507,-0.0604,-0.0715,-0.0802,-0.0917,-0.0914,-0.0854,-0.0867,-0.0974,-0.1025,-0.1086,-0.1107,-0.0948,-0.0947,-0.0947,0,-0.0508,-0.048,-0.0466,-0.0451,-0.0437,-0.0414,-0.04,-0.0408,-0.0385,-0.0368,-0.0344,-0.0368,-0.0372,-0.0503,-0.0644,-0.0773,-0.0878,-0.0844,-0.0886,-0.0955,-0.1029,-0.1072,-0.1089,-0.0852,-0.0851,-0.085,-0.0849,0,-0.0407,-0.0419,-0.039,-0.037,-0.0352,-0.0325,-0.03,-0.027,-0.0271,-0.0236,-0.0194,-0.019,-0.0297,-0.039,-0.0559,-0.0671,-0.0877,-0.0827,-0.0923,-0.0965,-0.0991,-0.1029,-0.0861,-0.084,-0.0841,-0.0841,-0.0842,-0.0842,-0.0338,-0.0313,-0.0304,-0.0277,-0.0263,-0.0227,-0.0187,-0.0156,-0.0103,-0.0038,-0.0064,-0.0017,-0.0176,-0.0389,-0.0543,-0.0783,-0.0816,-0.088,-0.0937,-0.0975,-0.0988,-0.0782,-0.077,-0.077,-0.0771,-0.0771,-0.0771,0,-0.0236,-0.0231,-0.0208,-0.0182,-0.0147,-0.0162,-0.0112,-0.0063,0.0017,0.0076,0.012,0.0104,-0.0091,-0.0319,-0.0636,-0.0848,-0.0943,-0.0978,-0.1046,-0.1061,-0.0897,-0.0885,-0.0866,-0.0866,-0.0866,-0.0865,-0.0865,-0.0865,-0.0183,-0.0142,-0.014,-0.0074,-0.006,0.0002,0.0038,0.0099,0.0155,0.0263,0.0322,0.0327,0.02,-0.0416,-0.0865,-0.0998,-0.1139,-0.1174,-0.1258,-0.117,-0.1166,-0.1162,-0.1164,-0.1204,-0.1204,-0.1383,-0.1385,-0.1387]}],[{"header":{"parameterUnit":"m.s-1","parameterCategory":2,"la1":30.2991,"la2":30.254,"lo1":-89.0895,"lo2":-89.0444,"dy":0.0017,"dx":0.0017,"nx":28,"ny":28,"refTime":"2024-08-08T03:00:00:Z","depth":"2","parameterNumber":2,"parameterNumberName":"U-component_of_CURRENTS"},"data":[0,0,0,0,0,0,0,0,0,0,0,0,0,0,0,0,0,0,0,0,0,0,0,0,0,0,0,0,0,0,0,0,0,0,0,0,0,0,0,0,0,0,0,0,0,0,0,0,0,0,0,0,0,0,0,0,0,0,0.0792,0.0792,0,0.0644,0.0641,0.0638,0.0562,0.0563,0.0564,0.0566,0.0633,0.0633,0.0634,0,0,0,0,0,0,0,0,0,0,0,0,0,0.0846,0.0846,0.0792,0.0792,0.0791,0.0644,0.0641,0.0637,0.0562,0.0563,0.0565,0.0566,0.0633,0.0633,0.0634,0,0,0,0,0,0,0,0,0,0,0,0,0,0.0759,0.0845,0.0792,0.0747,0.0743,0.0645,0.0641,0.0636,0.0561,0.0563,0.0565,0.0567,0.0632,0.0633,0.0634,0.0599,0,0,0.0636,0.0637,0,0,0,0,0,0,0,0,0.0764,0.0755,0.0754,0.075,0.0745,0.0637,0.0685,0.064,0.0561,0.0614,0.0566,0.0568,0.0663,0.0661,0.0604,0.0602,0.0605,0.0637,0.0637,0.0637,0.0638,0,0,0,0,0,0,0,0.077,0.076,0.0718,0.0754,0.0749,0.068,0.0669,0.0673,0.0621,0.0609,0.0607,0.0615,0.066,0.0603,0.0606,0.0606,0.0637,0.0637,0.0638,0.0638,0.0668,0.0669,0,0,0,0,0,0,0.0826,0.0767,0.0723,0.0715,0.0777,0.0679,0.0666,0.0657,0.0616,0.0614,0.0613,0.0612,0.06,0.0605,0.0608,0.0699,0.0637,0.0638,0.0639,0.0668,0.0668,0.0669,0,0,0,0,0,0,0.0827,0.0822,0.0729,0.075,0.0736,0.0679,0.0667,0.0653,0.0635,0.062,0.0619,0.0616,0.0602,0.0607,0.0709,0.0698,0.0639,0.0639,0.0668,0.0668,0.0669,0.0797,0,0,0,0,0,0,0.0829,0.0823,0.0827,0.0754,0.0738,0.0687,0.0666,0.065,0.0642,0.0639,0.0622,0.0627,0.0604,0.0708,0.071,0.0698,0.064,0.0667,0.0668,0.0668,0.0793,0.0802,0.081,0,0,0,0,0,0.0831,0.0818,0.0828,0.0823,0.0748,0.0688,0.067,0.0625,0.0641,0.0618,0.0679,0.0629,0.0708,0.0713,0.0714,0.0701,0.0667,0.0668,0.0668,0.0789,0.08,0.081,0,0,0,0,0,0,0.0818,0.0809,0.0818,0.0798,0.0766,0.0682,0.0679,0.065,0.066,0.0709,0.0686,0.0696,0.0753,0.0723,0.0727,0.0703,0.0656,0.0657,0.0747,0.0757,0.0766,0.0789,0.0641,0,0,0,0,0,0.0832,0.0832,0.0806,0.0789,0.0805,0.0754,0.0731,0.0711,0.0716,0.0718,0.0689,0.0702,0.0738,0.0761,0.0751,0.0783,0.0781,0.0753,0.0762,0.077,0.0786,0.0805,0.0818,0.0671,0.0671,0.0671,0,0,0.0836,0.082,0.0828,0.0791,0.0782,0.0785,0.0742,0.0741,0.0747,0.0736,0.0742,0.0741,0.0757,0.0782,0.0798,0.0774,0.0815,0.0771,0.0779,0.079,0.0807,0.0822,0.0835,0.0672,0.0671,0.0671,0,0,0.0835,0.0838,0.0858,0.0837,0.0845,0.0824,0.0844,0.0786,0.0783,0.0824,0.0808,0.084,0.0843,0.0834,0.0854,0.0909,0.0862,0.0862,0.0935,0.0954,0.0967,0.0979,0.1025,0.1039,0.0866,0.0866,0.0866,0,0.0844,0.0844,0.0845,0.0848,0.0855,0.0862,0.0884,0.0876,0.0838,0.0848,0.0863,0.0869,0.0874,0.0932,0.0948,0.093,0.0944,0.0906,0.0971,0.0982,0.0991,0.1035,0.105,0.0872,0.0872,0.0871,0.087,0,0.086,0.0861,0.0875,0.0901,0.0903,0.0916,0.0946,0.093,0.0959,0.094,0.0988,0.1006,0.1004,0.0985,0.1016,0.1046,0.1038,0.0986,0.0957,0.1015,0.1056,0.1069,0.0881,0.0879,0.0877,0.0876,0,0,0.0874,0.089,0.0884,0.0908,0.0938,0.0936,0.0992,0.1014,0.1047,0.1045,0.1075,0.1135,0.1115,0.1133,0.1113,0.1139,0.1237,0.1107,0.1105,0.1177,0.1313,0.1327,0.1342,0.1203,0.1205,0.1207,0.1326,0,0.0892,0.0906,0.0901,0.0934,0.0987,0.0989,0.102,0.1048,0.1091,0.11,0.1161,0.1192,0.1186,0.12,0.1236,0.1229,0.1272,0.1212,0.1223,0.1225,0.125,0.1358,0.1175,0.1267,0.1338,0.1341,0.1342,0,0.0914,0.0929,0.0967,0.0984,0.1006,0.102,0.108,0.1087,0.114,0.1181,0.1237,0.1257,0.1328,0.13,0.1382,0.1348,0.1353,0.1351,0.1353,0.1331,0.1263,0.121,0.1287,0.1363,0.1361,0.136,0.1359,0,0.0952,0.0958,0.0991,0.0996,0.1032,0.1052,0.1066,0.1118,0.1149,0.122,0.127,0.1345,0.1399,0.143,0.1462,0.1429,0.154,0.1475,0.1498,0.1499,0.1327,0.131,0.1527,0.1527,0.1527,0.1527,0.1526,0,0.0962,0.0977,0.1013,0.103,0.1073,0.1092,0.1141,0.1149,0.1212,0.126,0.1309,0.1381,0.1435,0.1498,0.1507,0.1579,0.1584,0.1554,0.1542,0.1369,0.1355,0.1402,0.1386,0.1531,0.153,0.1529,0.1529,0,0.0973,0.0988,0.1026,0.1074,0.1096,0.1121,0.1172,0.1195,0.1258,0.1326,0.1358,0.1446,0.1553,0.1601,0.1658,0.1646,0.1683,0.1685,0.1505,0.1472,0.1622,0.1611,0.1755,0.1756,0.1758,0.1759,0.176,0,0.0951,0.099,0.1051,0.1069,0.1088,0.114,0.1169,0.1224,0.1266,0.1363,0.1399,0.1523,0.1604,0.1729,0.1714,0.1764,0.1769,0.162,0.1522,0.1679,0.1651,0.1637,0.1624,0.1349,0.1347,0.1345,0.1343,0,0.0923,0.0957,0.098,0.1049,0.1089,0.1125,0.1185,0.1236,0.1292,0.1371,0.1456,0.1519,0.1636,0.1611,0.1679,0.167,0.1607,0.1587,0.1789,0.1329,0.1308,0.1277,0.1275,0.1326,0.1327,0.1329,0.133,0.133,0.086,0.0884,0.0929,0.0978,0.1024,0.1075,0.1101,0.1179,0.1242,0.1311,0.1418,0.1447,0.1433,0.1463,0.1476,0.1495,0.1577,0.1477,0.1478,0.1481,0.1422,0.1406,0.1433,0.1435,0.1437,0.1439,0.144,0,0.0749,0.0805,0.085,0.09,0.0918,0.0988,0.1066,0.1081,0.1139,0.1228,0.1297,0.1165,0.1173,0.1227,0.1203,0.1234,0.1174,0.1228,0.109,0.1108,0.1123,0.104,0.0953,0.0952,0.0951,0.0951,0,0,0.0682,0.0696,0.0749,0.0764,0.0816,0.083,0.0865,0.0916,0.0973,0.1003,0.1005,0.1065,0.1113,0.0957,0.0974,0.0971,0.1039,0.0959,0.1335,0.1184,0.1199,0.1243,0.1134,0,0,0,0,0]},{"header":{"parameterUnit":"m.s-1","parameterCategory":2,"la1":30.2991,"la2":30.254,"lo1":-89.0895,"lo2":-89.0444,"dy":0.0017,"dx":0.0017,"nx":28,"ny":28,"refTime":"2024-08-08T03:00:00:Z","depth":"2","parameterNumber":3,"parameterNumberName":"V-component_of_CURRENTS"},"data":[0,0,0,0,0,0,0,0,0,0,0,0,0,0,0,0,0,0,0,0,0,0,0,0,0,0,0,0,0,0,0,0,0,0,0,0,0,0,0,0,0,0,0,0,0,0,0,0,0,0,0,0,0,0,0,0,0,0,-0.0164,-0.0165,0,-0.0078,-0.0075,-0.0073,-0.0063,-0.0065,-0.0068,-0.007,-0.0256,-0.0258,-0.0261,0,0,0,0,0,0,0,0,0,0,0,0,0,-0.0167,-0.0166,-0.0164,-0.0165,-0.0165,-0.0078,-0.0075,-0.0073,-0.0063,-0.0065,-0.0068,-0.0071,-0.0255,-0.0258,-0.0261,0,0,0,0,0,0,0,0,0,0,0,0,0,-0.0117,-0.0166,-0.0164,-0.0161,-0.0161,-0.0079,-0.0075,-0.0072,-0.0062,-0.0066,-0.0069,-0.0072,-0.0254,-0.0258,-0.0262,-0.0219,0,0,-0.0275,-0.0277,0,0,0,0,0,0,0,0,-0.012,-0.0115,-0.0161,-0.0161,-0.0161,-0.0098,-0.0145,-0.014,-0.0061,-0.0083,-0.007,-0.0074,-0.0236,-0.0242,-0.0192,-0.0228,-0.0236,-0.0275,-0.0278,-0.028,-0.0281,0,0,0,0,0,0,0,-0.0123,-0.0118,-0.0114,-0.0162,-0.0162,-0.0112,-0.0109,-0.0141,-0.0134,-0.0081,-0.0084,-0.0098,-0.0236,-0.0187,-0.0197,-0.0238,-0.0275,-0.0279,-0.0281,-0.0283,-0.0392,-0.0392,0,0,0,0,0,0,-0.017,-0.0122,-0.0117,-0.0113,-0.0166,-0.0111,-0.0106,-0.0102,-0.0128,-0.0138,-0.0096,-0.0099,-0.0178,-0.0192,-0.0204,-0.0301,-0.028,-0.0283,-0.0286,-0.0391,-0.0392,-0.0392,0,0,0,0,0,0,-0.0169,-0.0169,-0.0121,-0.0129,-0.0122,-0.011,-0.0104,-0.0099,-0.0085,-0.0139,-0.0151,-0.0094,-0.0181,-0.0199,-0.0301,-0.0305,-0.0285,-0.0289,-0.0391,-0.0391,-0.0392,-0.0405,0,0,0,0,0,0,-0.0169,-0.0169,-0.0155,-0.0132,-0.0124,-0.0065,-0.0102,-0.0096,-0.0094,-0.0097,-0.0141,-0.0158,-0.0186,-0.0295,-0.0305,-0.031,-0.0292,-0.039,-0.0391,-0.0392,-0.0404,-0.0406,-0.0407,0,0,0,0,0,-0.0169,-0.0154,-0.0154,-0.0154,-0.0114,-0.0065,-0.0051,-0.0046,-0.0092,-0.0051,-0.0148,-0.0159,-0.0305,-0.03,-0.0312,-0.0318,-0.039,-0.0391,-0.0392,-0.0403,-0.0406,-0.0407,0,0,0,0,0,0,-0.0145,-0.0152,-0.0152,-0.0138,-0.0103,-0.007,-0.0075,-0.0055,-0.0081,-0.0152,-0.0185,-0.0207,-0.0288,-0.0303,-0.0296,-0.0347,-0.0339,-0.0342,-0.0344,-0.0346,-0.0348,-0.0325,-0.0296,0,0,0,0,0,-0.0135,-0.0125,-0.0114,-0.0095,-0.0118,-0.0096,-0.0079,-0.0081,-0.0115,-0.0126,-0.0133,-0.0203,-0.0282,-0.0324,-0.0361,-0.0404,-0.0407,-0.0407,-0.0408,-0.041,-0.0398,-0.0419,-0.0421,-0.0395,-0.0395,-0.0395,0,0,-0.0131,-0.0126,-0.0125,-0.0088,-0.0102,-0.0102,-0.0093,-0.011,-0.0105,-0.0155,-0.0165,-0.0212,-0.0297,-0.0348,-0.0381,-0.0376,-0.0422,-0.0411,-0.0412,-0.0399,-0.042,-0.0422,-0.0425,-0.0395,-0.0395,-0.0395,0,0,-0.0132,-0.0128,-0.0142,-0.0113,-0.0135,-0.0125,-0.0139,-0.0111,-0.0112,-0.0141,-0.019,-0.0243,-0.0308,-0.0341,-0.0396,-0.0426,-0.0432,-0.0432,-0.0426,-0.0447,-0.0449,-0.0451,-0.047,-0.0473,-0.0431,-0.0431,-0.0431,0,-0.0129,-0.0124,-0.0126,-0.0129,-0.0125,-0.0151,-0.0161,-0.0157,-0.0133,-0.0135,-0.0171,-0.0248,-0.0307,-0.0394,-0.0408,-0.0429,-0.0443,-0.0419,-0.0449,-0.0451,-0.0453,-0.0471,-0.0475,-0.0432,-0.0432,-0.0432,-0.0431,0,-0.014,-0.0129,-0.0154,-0.0167,-0.0148,-0.0163,-0.0187,-0.015,-0.0184,-0.0172,-0.0227,-0.0292,-0.0328,-0.035,-0.0414,-0.044,-0.0448,-0.0452,-0.0444,-0.0456,-0.0475,-0.0479,-0.0433,-0.0432,-0.0432,-0.0432,0,0,-0.0147,-0.0161,-0.0148,-0.0153,-0.0172,-0.0152,-0.018,-0.0172,-0.019,-0.0192,-0.019,-0.0311,-0.0314,-0.037,-0.041,-0.0431,-0.0469,-0.0449,-0.045,-0.0466,-0.0519,-0.0473,-0.0473,-0.0485,-0.0485,-0.0486,-0.0531,0,-0.0157,-0.015,-0.0138,-0.013,-0.0174,-0.0153,-0.015,-0.0148,-0.0181,-0.0165,-0.0253,-0.0302,-0.0344,-0.0377,-0.0407,-0.0452,-0.0477,-0.0455,-0.0505,-0.0506,-0.0462,-0.0475,-0.0436,-0.0468,-0.0535,-0.0536,-0.0536,0,-0.0177,-0.0167,-0.0163,-0.0136,-0.0149,-0.0136,-0.0122,-0.0103,-0.0131,-0.0164,-0.0217,-0.0271,-0.0326,-0.0358,-0.044,-0.0429,-0.0473,-0.0504,-0.0507,-0.0456,-0.0465,-0.0464,-0.0472,-0.0542,-0.0541,-0.0541,-0.0541,0,-0.0191,-0.0171,-0.0157,-0.0144,-0.0132,-0.0116,-0.0101,-0.0116,-0.0107,-0.0156,-0.0173,-0.0258,-0.0301,-0.0364,-0.0434,-0.0447,-0.0504,-0.0529,-0.0528,-0.0526,-0.0494,-0.0487,-0.0576,-0.0576,-0.0575,-0.0575,-0.0575,0,-0.0194,-0.0176,-0.017,-0.0151,-0.0144,-0.0131,-0.0123,-0.0109,-0.0119,-0.0117,-0.0176,-0.0196,-0.0305,-0.0348,-0.0417,-0.0474,-0.0496,-0.0521,-0.0531,-0.0498,-0.0491,-0.0552,-0.0549,-0.0577,-0.0577,-0.0576,-0.0576,0,-0.0203,-0.0188,-0.0183,-0.0161,-0.0164,-0.0151,-0.0127,-0.0107,-0.0123,-0.0113,-0.0125,-0.0164,-0.0221,-0.0306,-0.0402,-0.0445,-0.0504,-0.0516,-0.0466,-0.0467,-0.0523,-0.052,-0.0536,-0.0534,-0.0533,-0.0532,-0.0531,0,-0.0185,-0.0198,-0.0184,-0.0171,-0.0165,-0.0156,-0.0142,-0.0134,-0.0117,-0.0085,-0.0071,-0.0113,-0.0117,-0.0221,-0.0323,-0.0421,-0.047,-0.0445,-0.0457,-0.0509,-0.0518,-0.0516,-0.0515,-0.0436,-0.0435,-0.0434,-0.0433,0,-0.0167,-0.0174,-0.0144,-0.0151,-0.0142,-0.0112,-0.0101,-0.0089,-0.0046,-0.0024,0.0037,0.0057,-0.0038,-0.0106,-0.0238,-0.0304,-0.0427,-0.0422,-0.0495,-0.0437,-0.0415,-0.0423,-0.0425,-0.0422,-0.0423,-0.0424,-0.0424,-0.0425,-0.013,-0.0121,-0.0101,-0.0093,-0.0078,-0.0045,-0.0016,0.002,0.0083,0.0161,0.0158,0.0211,0.0095,-0.0034,-0.0168,-0.0327,-0.0337,-0.0386,-0.0391,-0.0397,-0.0361,-0.0337,-0.0323,-0.0324,-0.0324,-0.0325,-0.0325,0,-0.0064,-0.0061,-0.0042,-0.0016,0.0023,0.0002,0.0051,0.0104,0.0194,0.0253,0.0328,0.0295,0.0214,0.0043,-0.0165,-0.0275,-0.0308,-0.0326,-0.0349,-0.0357,-0.0365,-0.033,-0.0283,-0.0284,-0.0284,-0.0285,0,0,-0.0026,0.001,0.0012,0.0081,0.0095,0.0154,0.019,0.0261,0.0315,0.0417,0.045,0.0482,0.0285,0.0148,-0.0028,-0.0167,-0.0238,-0.0189,-0.0202,-0.0215,-0.0222,-0.037,-0.032,0,0,0,0,0]}],[{"header":{"parameterUnit":"m.s-1","parameterCategory":2,"la1":30.2991,"la2":30.254,"lo1":-89.0895,"lo2":-89.0444,"dy":0.0017,"dx":0.0017,"nx":28,"ny":28,"refTime":"2024-08-08T03:00:00:Z","depth":"4","parameterNumber":2,"parameterNumberName":"U-component_of_CURRENTS"},"data":[0,0,0,0,0,0,0,0,0,0,0,0,0,0,0,0,0,0,0,0,0,0,0,0,0,0,0,0,0,0,0,0,0,0,0,0,0,0,0,0,0,0,0,0,0,0,0,0,0,0,0,0,0,0,0,0,0,0,-0.0303,-0.0303,0,-0.0313,-0.0313,-0.0313,-0.0332,-0.0333,-0.0333,-0.0334,-0.0454,-0.0456,-0.0459,0,0,0,0,0,0,0,0,0,0,0,0,0,-0.0281,-0.0281,-0.0303,-0.0303,-0.0304,-0.0313,-0.0313,-0.0313,-0.0332,-0.0333,-0.0333,-0.0334,-0.0453,-0.0456,-0.0459,0,0,0,0,0,0,0,0,0,0,0,0,0,-0.0287,-0.0281,-0.0303,-0.0317,-0.0319,-0.0313,-0.0313,-0.0312,-0.0332,-0.0333,-0.0334,-0.0335,-0.0452,-0.0456,-0.046,-0.0461,0,0,-0.0471,-0.0473,0,0,0,0,0,0,0,0,-0.0287,-0.0287,-0.0315,-0.0316,-0.0318,-0.0326,-0.0349,-0.0369,-0.0331,-0.0323,-0.0334,-0.0335,-0.0423,-0.0429,-0.0422,-0.0467,-0.0472,-0.0471,-0.0474,-0.0475,-0.0476,0,0,0,0,0,0,0,-0.0286,-0.0287,-0.0303,-0.0315,-0.0317,-0.0317,-0.0319,-0.0352,-0.0366,-0.0323,-0.0326,-0.0333,-0.0424,-0.0418,-0.0425,-0.0474,-0.0471,-0.0475,-0.0477,-0.0479,-0.0613,-0.0614,0,0,0,0,0,0,-0.0292,-0.0286,-0.0303,-0.0304,-0.0309,-0.0317,-0.0319,-0.0319,-0.0363,-0.0371,-0.0332,-0.0334,-0.0411,-0.0421,-0.043,-0.053,-0.0475,-0.0479,-0.0481,-0.0612,-0.0613,-0.0615,0,0,0,0,0,0,-0.0292,-0.0293,-0.0302,-0.0299,-0.0301,-0.0317,-0.0316,-0.0319,-0.0341,-0.0369,-0.0378,-0.0356,-0.0412,-0.0424,-0.0491,-0.0531,-0.0481,-0.0484,-0.061,-0.0612,-0.0614,-0.0669,0,0,0,0,0,0,-0.0291,-0.0293,-0.0293,-0.0299,-0.0301,-0.0312,-0.0316,-0.0318,-0.0344,-0.0347,-0.0393,-0.0403,-0.0414,-0.0485,-0.0495,-0.0535,-0.0487,-0.0608,-0.0611,-0.0613,-0.0666,-0.0673,-0.0679,0,0,0,0,0,-0.029,-0.0292,-0.0293,-0.0295,-0.0301,-0.0312,-0.0313,-0.0326,-0.0345,-0.0351,-0.0396,-0.0403,-0.0507,-0.049,-0.05,-0.0543,-0.0607,-0.061,-0.0613,-0.0663,-0.0672,-0.0679,0,0,0,0,0,0,-0.0289,-0.0295,-0.0296,-0.0301,-0.0311,-0.0318,-0.0327,-0.0342,-0.0377,-0.0399,-0.0424,-0.0437,-0.0511,-0.0516,-0.0496,-0.0587,-0.0557,-0.0562,-0.0591,-0.0599,-0.0606,-0.0562,-0.049,0,0,0,0,0,-0.0286,-0.0285,-0.0296,-0.03,-0.031,-0.0323,-0.0332,-0.0349,-0.0381,-0.0397,-0.0435,-0.0479,-0.0524,-0.0554,-0.0589,-0.064,-0.0602,-0.0672,-0.0679,-0.0684,-0.0656,-0.0649,-0.0652,-0.0624,-0.0624,-0.0624,0,0,-0.0292,-0.029,-0.0294,-0.0299,-0.0309,-0.0317,-0.0331,-0.0361,-0.0384,-0.0408,-0.0466,-0.0511,-0.0544,-0.0604,-0.0636,-0.0619,-0.0671,-0.0688,-0.0693,-0.066,-0.0652,-0.0655,-0.0657,-0.0626,-0.0626,-0.0626,0,0,-0.0296,-0.03,-0.0301,-0.0309,-0.0331,-0.0335,-0.0352,-0.0385,-0.0417,-0.0478,-0.0505,-0.0565,-0.0636,-0.0657,-0.0679,-0.0739,-0.071,-0.0767,-0.0766,-0.0763,-0.0764,-0.0765,-0.071,-0.0705,-0.0767,-0.0767,-0.0767,0,-0.0299,-0.0298,-0.0306,-0.031,-0.0321,-0.0346,-0.0361,-0.0389,-0.0445,-0.0477,-0.0509,-0.0608,-0.0652,-0.07,-0.0728,-0.0754,-0.0727,-0.0739,-0.0769,-0.0769,-0.0769,-0.0713,-0.0707,-0.077,-0.077,-0.077,-0.0769,0,-0.0304,-0.0307,-0.0314,-0.0316,-0.0329,-0.035,-0.0387,-0.0426,-0.048,-0.0508,-0.0595,-0.0652,-0.0694,-0.074,-0.076,-0.079,-0.0762,-0.0782,-0.0745,-0.0775,-0.0714,-0.0707,-0.0775,-0.0774,-0.0773,-0.0772,0,0,-0.0299,-0.0312,-0.0314,-0.0319,-0.034,-0.0352,-0.0398,-0.0435,-0.0461,-0.0546,-0.0578,-0.0684,-0.0706,-0.0729,-0.0768,-0.0781,-0.0776,-0.0784,-0.0782,-0.0719,-0.0727,-0.0606,-0.0586,-0.0809,-0.0809,-0.0808,-0.0681,0,-0.0298,-0.03,-0.0311,-0.0325,-0.0334,-0.0368,-0.0395,-0.0441,-0.049,-0.0526,-0.0604,-0.0643,-0.0703,-0.0726,-0.0756,-0.0776,-0.0761,-0.0805,-0.0714,-0.0709,-0.0591,-0.0576,-0.0807,-0.0675,-0.0673,-0.0672,-0.0671,0,-0.0297,-0.0295,-0.0309,-0.0327,-0.0337,-0.0345,-0.0383,-0.0413,-0.0464,-0.0506,-0.0555,-0.0592,-0.0632,-0.0674,-0.0693,-0.0722,-0.0712,-0.0722,-0.0718,-0.0572,-0.0575,-0.0641,-0.0657,-0.0659,-0.066,-0.066,-0.0661,0,-0.0291,-0.0297,-0.0304,-0.0312,-0.0334,-0.0355,-0.0365,-0.0409,-0.043,-0.0463,-0.0467,-0.0529,-0.0537,-0.057,-0.0591,-0.0644,-0.0577,-0.065,-0.0515,-0.0505,-0.0628,-0.0629,-0.0618,-0.0618,-0.0618,-0.0618,-0.0619,0,-0.0281,-0.0294,-0.0297,-0.0309,-0.0306,-0.0335,-0.0342,-0.0368,-0.0388,-0.038,-0.0436,-0.0425,-0.0513,-0.0496,-0.0538,-0.0474,-0.0523,-0.0477,-0.046,-0.0654,-0.0659,-0.0622,-0.0624,-0.0614,-0.0615,-0.0616,-0.0616,0,-0.0285,-0.0288,-0.03,-0.0315,-0.0307,-0.0309,-0.0305,-0.0311,-0.0322,-0.0303,-0.0301,-0.0329,-0.0298,-0.0334,-0.0348,-0.0361,-0.0341,-0.0293,-0.0429,-0.0429,-0.0287,-0.0294,-0.0149,-0.0143,-0.0139,-0.0135,-0.0132,0,-0.0284,-0.0292,-0.0298,-0.0281,-0.0284,-0.0273,-0.0265,-0.0279,-0.027,-0.0237,-0.0221,-0.0171,-0.0182,-0.0087,-0.0152,-0.0139,-0.0155,-0.0118,-0.0271,-0.0237,-0.0237,-0.0251,-0.0264,-0.0125,-0.0123,-0.0122,-0.0121,0,-0.0284,-0.0299,-0.0307,-0.027,-0.0251,-0.0225,-0.0206,-0.0187,-0.0183,-0.0183,-0.0104,-0.0067,0.0003,-0.0016,0.0045,0.0018,-0.015,-0.0072,-0.0085,-0.0228,-0.0207,-0.0214,-0.0232,-0.0105,-0.0107,-0.0109,-0.011,0,-0.0282,-0.0277,-0.0278,-0.0248,-0.0221,-0.0181,-0.0176,-0.0129,-0.0109,-0.0068,-0.003,0.0012,0.0024,0.0075,0.0099,0.0127,0.0079,0.0042,0.0021,0.0003,-0.0011,0.0035,0.026,0,0,0,0,0,-0.0247,-0.024,-0.0237,-0.0201,-0.0189,-0.0164,-0.0136,-0.0134,-0.0106,-0.0029,-0.0024,0.0046,0.0119,0.0124,0.0176,0.0134,0.0058,0.0194,-0.0003,-0.0017,-0.0035,-0.007,0,0,0,0,0,0,-0.0213,-0.0212,-0.0231,-0.0179,-0.0147,-0.0117,-0.0099,-0.0086,-0.004,-0.0008,0.0025,0.0068,0.0117,0.0098,0.0181,0.0187,0.0072,0.0221,0.0223,-0.0007,-0.0023,-0.0038,-0.0081,0,0,0,0,0]},{"header":{"parameterUnit":"m.s-1","parameterCategory":2,"la1":30.2991,"la2":30.254,"lo1":-89.0895,"lo2":-89.0444,"dy":0.0017,"dx":0.0017,"nx":28,"ny":28,"refTime":"2024-08-08T03:00:00:Z","depth":"4","parameterNumber":3,"parameterNumberName":"V-component_of_CURRENTS"},"data":[0,0,0,0,0,0,0,0,0,0,0,0,0,0,0,0,0,0,0,0,0,0,0,0,0,0,0,0,0,0,0,0,0,0,0,0,0,0,0,0,0,0,0,0,0,0,0,0,0,0,0,0,0,0,0,0,0,0,0.0084,0.0083,0,0.0004,0.0003,0.0002,0.0008,0.0009,0.0011,0.0012,-0.0026,-0.0028,-0.003,0,0,0,0,0,0,0,0,0,0,0,0,0,0.0178,0.0177,0.0084,0.0083,0.0082,0.0004,0.0003,0.0002,0.0008,0.001,0.0011,0.0012,-0.0026,-0.0028,-0.0031,0,0,0,0,0,0,0,0,0,0,0,0,0,0.0122,0.0177,0.0084,0.0076,0.0074,0.0004,0.0003,0.0002,0.0008,0.001,0.0011,0.0013,-0.0025,-0.0028,-0.0031,-0.0087,0,0,-0.0041,-0.0042,0,0,0,0,0,0,0,0,0.0125,0.0118,0.0078,0.0076,0.0074,0.0018,0.0022,-0.0026,0.0007,0.0033,0.0012,0.0014,-0.0009,-0.0013,-0.0033,-0.0089,-0.0091,-0.0041,-0.0043,-0.0044,-0.0045,0,0,0,0,0,0,0,0.0129,0.0122,0.0052,0.0077,0.0074,0.0054,0.0049,0.0013,0.0003,0.0031,0.0031,0.0022,-0.0009,-0.003,-0.0034,-0.0091,-0.0041,-0.0044,-0.0046,-0.0047,-0.0157,-0.0158,0,0,0,0,0,0,0.014,0.0125,0.0055,0.005,0.0105,0.0051,0.0045,0.0034,0.0003,-0.0,0.002,0.0022,-0.0025,-0.003,-0.0035,-0.0048,-0.0044,-0.0047,-0.0049,-0.0156,-0.0157,-0.0158,0,0,0,0,0,0,0.0142,0.0134,0.0058,0.0086,0.0075,0.0048,0.0035,0.0032,0.0016,-0.0006,-0.0007,0.001,-0.0024,-0.0031,-0.007,-0.0051,-0.0049,-0.0052,-0.0155,-0.0156,-0.0157,-0.0109,0,0,0,0,0,0,0.0145,0.0136,0.0129,0.0087,0.0074,0.0023,0.0034,0.0029,0.0007,0.001,-0.0016,-0.0017,-0.0023,-0.0066,-0.0074,-0.0055,-0.0054,-0.0153,-0.0155,-0.0157,-0.0109,-0.0108,-0.0108,0,0,0,0,0,0.0149,0.0135,0.0129,0.012,0.0066,0.0022,0.0013,0.0,0.0005,-0.0006,-0.0027,-0.0016,-0.0082,-0.007,-0.0079,-0.0061,-0.0152,-0.0155,-0.0157,-0.0109,-0.0108,-0.0108,0,0,0,0,0,0,0.0166,0.0132,0.0126,0.01,0.0067,0.0024,0.0011,-0.0005,-0.0034,-0.0028,-0.0044,-0.0049,-0.0071,-0.0091,-0.0077,-0.0101,-0.011,-0.0114,-0.0071,-0.007,-0.007,-0.0061,-0.0057,0,0,0,0,0,0.0166,0.0153,0.0112,0.0091,0.0078,0.0042,0.0021,0.0009,-0.0022,-0.0033,-0.0052,-0.0073,-0.0093,-0.01,-0.0127,-0.0153,-0.0165,-0.0146,-0.0145,-0.0144,-0.0147,-0.0155,-0.0154,-0.0165,-0.0165,-0.0165,0,0,0.0167,0.0146,0.0139,0.0095,0.0071,0.0033,0.0035,0.0005,-0.0027,-0.0034,-0.0076,-0.0079,-0.0104,-0.0121,-0.0132,-0.013,-0.015,-0.0147,-0.0146,-0.0149,-0.0157,-0.0156,-0.0154,-0.0167,-0.0166,-0.0166,0,0,0.0157,0.0144,0.0129,0.0097,0.006,0.0032,0.0023,-0.0021,-0.0034,-0.0079,-0.0081,-0.0087,-0.0127,-0.0134,-0.0143,-0.0167,-0.015,-0.0155,-0.0136,-0.0143,-0.0141,-0.014,-0.0152,-0.0152,-0.0147,-0.0147,-0.0147,0,0.0162,0.0128,0.0115,0.0083,0.0054,0.0031,-0.0006,-0.0036,-0.0088,-0.01,-0.0085,-0.0125,-0.0137,-0.0155,-0.014,-0.0162,-0.0155,-0.0128,-0.0138,-0.0138,-0.0137,-0.0149,-0.015,-0.0145,-0.0145,-0.0146,-0.0146,0,0.0127,0.0101,0.0088,0.0042,0.001,-0.0024,-0.0066,-0.0092,-0.0102,-0.0123,-0.0138,-0.0147,-0.0154,-0.0152,-0.0144,-0.0138,-0.0131,-0.0137,-0.013,-0.0132,-0.0146,-0.0148,-0.0142,-0.0143,-0.0144,-0.0144,0,0,0.0134,0.0078,0.0072,0.0047,-0.0014,-0.0043,-0.0092,-0.0139,-0.0157,-0.0173,-0.0187,-0.019,-0.0153,-0.0162,-0.0143,-0.0139,-0.0117,-0.0112,-0.0113,-0.0105,-0.0117,-0.0132,-0.0136,-0.01,-0.01,-0.01,-0.0126,0,0.0109,0.0059,0.0026,-0.0033,-0.0063,-0.01,-0.0143,-0.0182,-0.0197,-0.0215,-0.0204,-0.0197,-0.017,-0.013,-0.0126,-0.0123,-0.0118,-0.0109,-0.0133,-0.0135,-0.0132,-0.0138,-0.01,-0.0128,-0.0128,-0.0128,-0.0128,0,0.0074,0.005,0.0004,-0.0057,-0.0074,-0.0104,-0.0155,-0.0193,-0.0221,-0.0221,-0.0202,-0.0188,-0.0168,-0.0139,-0.0137,-0.0117,-0.0104,-0.011,-0.0111,-0.0144,-0.0153,-0.013,-0.0131,-0.0131,-0.0131,-0.0131,-0.0131,0,0.0088,0.0022,-0.0005,-0.0029,-0.0094,-0.0107,-0.0133,-0.0173,-0.0195,-0.0188,-0.0182,-0.0175,-0.0147,-0.014,-0.0136,-0.0111,-0.0154,-0.0136,-0.0153,-0.0155,-0.0151,-0.0153,-0.0141,-0.0141,-0.0141,-0.0141,-0.0141,0,0.0062,0.0034,0.0014,-0.0,-0.0028,-0.007,-0.0092,-0.0117,-0.0137,-0.0164,-0.0143,-0.0154,-0.0134,-0.0158,-0.015,-0.0166,-0.0166,-0.0155,-0.0163,-0.0133,-0.0132,-0.0152,-0.0153,-0.0142,-0.0141,-0.0141,-0.0141,0,0.0063,0.0046,0.0018,-0.0012,-0.0017,-0.0024,-0.0058,-0.0084,-0.0083,-0.0111,-0.0094,-0.0121,-0.0134,-0.0159,-0.0173,-0.0183,-0.0205,-0.0213,-0.0195,-0.0202,-0.0191,-0.019,-0.0216,-0.0217,-0.0217,-0.0218,-0.0218,0,0.0052,0.005,0.0037,0.0036,0.0029,0.0019,-0.0004,-0.0035,-0.0071,-0.0109,-0.0135,-0.0137,-0.0157,-0.0196,-0.0218,-0.0236,-0.0231,-0.0248,-0.0194,-0.0194,-0.0199,-0.0197,-0.0194,-0.0219,-0.0219,-0.022,-0.022,0,0.0039,0.0053,0.0029,0.0052,0.0043,0.0003,-0.0025,-0.0034,-0.009,-0.0099,-0.0138,-0.0145,-0.0182,-0.0197,-0.0219,-0.0235,-0.024,-0.0254,-0.0251,-0.02,-0.0198,-0.0202,-0.0199,-0.0222,-0.0222,-0.0221,-0.0221,0,0.0035,0.0019,0.0023,0.0041,0.003,0.0,-0.002,-0.0066,-0.0093,-0.013,-0.0152,-0.0167,-0.0184,-0.0201,-0.0237,-0.0242,-0.0218,-0.021,-0.0208,-0.0206,-0.0194,-0.019,-0.022,0,0,0,0,0,0.003,0.0014,0.0014,0.0003,0.0002,0.002,-0.0047,-0.0077,-0.0116,-0.0135,-0.0134,-0.0162,-0.0179,-0.0201,-0.0199,-0.0246,-0.0232,-0.0248,-0.0223,-0.0235,-0.0232,-0.0221,0,0,0,0,0,0,0.0015,0.0,-0.0,-0.0004,0.0022,-0.0013,-0.0024,-0.0062,-0.0082,-0.0102,-0.0107,-0.0134,-0.0151,-0.0138,-0.0174,-0.0185,-0.017,-0.0264,-0.0264,-0.0236,-0.0234,-0.0232,-0.0219,0,0,0,0,0]}]]